MET'MAP v2.0
soon released !

Expected late october,
this new version will be
more efficient, smarter,
and hosted on a brand new
server x3 powerfull...
...and still free !


Not compatible ?
Try the mobile version !

LOG IN : | Subscribe | Disclaimer | Who is Orbifly ? |
ICAO code :

TAF - LFKS Solenzara - 20 Feb 2020 05:11 UTC
Data Sources :     NOAA   


- Airport Elevation : 28 ft
- IATA code : SOZ
- No reported NOTAMs.


LFKS - Solenzara

Latest METAR recorded : 2020/02/20 04:00 LFKS 200400Z AUTO 28007KT 260V320 CAVOK 08/02 Q1022
NO TAF


MET'MAP, your aeronautical weather chart ! - Copyright ORBIFLY December 2007

Programming & Development : Alexandra Zaïnal
Co-Developer : Marc-Olivier Méhu
Technical & hardware support : Manuel Goepfert
Concept & Financing : Baudouin d'Aumeries